UAL352 KCLT-KCHS

Flight info

Callsign UAL352
Flight time 0h 37m
Altitude 20000
Route KWEEN5 UNJAM OSPRI7
Aircraft B738/M-SDE2E3FGHIRWXY/LB1

Departure

Time 2026-04-21 14:55
Airport Charlotte Douglas International Airport (KCLT)

Arrival

Time 2026-04-21 15:32
Airport Charleston International Airport (KCHS)
Time Latitude Longitude Altitude Speed Heading
2026-04-21 14:23 35.22129 -80.93940 748 ft 0 kts 195°
2026-04-21 14:44 35.22143 -80.93936 746 ft 2 kts 194°
2026-04-21 14:45 35.22158 -80.93931 746 ft 2 kts 194°
2026-04-21 14:45 35.22174 -80.93926 745 ft 2 kts 191°
2026-04-21 14:45 35.22190 -80.93924 746 ft 2 kts 153°
2026-04-21 14:45 35.22199 -80.93933 748 ft 1 kts 105°
2026-04-21 14:46 35.22200 -80.93937 748 ft 0 kts 103°
2026-04-21 14:49 35.22200 -80.93936 748 ft 1 kts 103°
2026-04-21 14:49 35.22198 -80.93898 747 ft 9 kts 91°
2026-04-21 14:49 35.22197 -80.93791 750 ft 15 kts 91°
2026-04-21 14:50 35.22131 -80.93719 748 ft 15 kts 177°
2026-04-21 14:50 35.22020 -80.93712 745 ft 17 kts 177°
2026-04-21 14:50 35.21969 -80.93707 744 ft 0 kts 174°
2026-04-21 14:50 35.21958 -80.93705 745 ft 5 kts 174°
2026-04-21 14:51 35.21868 -80.93696 743 ft 26 kts 178°
2026-04-21 14:51 35.21691 -80.93683 744 ft 24 kts 176°
2026-04-21 14:51 35.21528 -80.93668 741 ft 23 kts 176°
2026-04-21 14:51 35.21371 -80.93655 743 ft 22 kts 176°
2026-04-21 14:52 35.21215 -80.93641 741 ft 23 kts 175°
2026-04-21 14:52 35.21048 -80.93627 740 ft 25 kts 178°
2026-04-21 14:52 35.20873 -80.93612 738 ft 25 kts 175°
2026-04-21 14:52 35.20696 -80.93598 737 ft 25 kts 176°
2026-04-21 14:53 35.20521 -80.93583 735 ft 26 kts 175°
2026-04-21 14:53 35.20338 -80.93567 734 ft 26 kts 176°
2026-04-21 14:53 35.20165 -80.93552 732 ft 12 kts 175°
2026-04-21 14:53 35.20116 -80.93531 731 ft 4 kts 123°
2026-04-21 14:54 35.20114 -80.93490 731 ft 6 kts 86°
2026-04-21 14:54 35.20116 -80.93437 731 ft 5 kts 73°
2026-04-21 14:54 35.20189 -80.93415 732 ft 38 kts 353°
2026-04-21 14:54 35.20794 -80.93472 739 ft 135 kts 355°
2026-04-21 14:55 35.21938 -80.93611 1175 ft 182 kts 358°
2026-04-21 14:55 35.23220 -80.93466 2452 ft 188 kts 19°
2026-04-21 14:55 35.24525 -80.93020 3727 ft 200 kts 15°
2026-04-21 14:55 35.25863 -80.92504 4797 ft 206 kts 17°
2026-04-21 14:56 35.27206 -80.91896 6023 ft 205 kts 17°
2026-04-21 14:56 35.28592 -80.91434 6994 ft 212 kts
2026-04-21 14:56 35.30161 -80.91117 7361 ft 246 kts
2026-04-21 14:56 35.31897 -80.90697 8077 ft 262 kts
2026-04-21 14:57 35.33658 -80.90208 9363 ft 261 kts 11°
2026-04-21 14:57 35.35442 -80.89681 10403 ft 266 kts 12°
2026-04-21 14:57 35.37259 -80.89093 11155 ft 275 kts 17°
2026-04-21 14:57 35.38887 -80.87785 11955 ft 289 kts 41°
2026-04-21 14:58 35.40050 -80.85729 12822 ft 302 kts 59°
2026-04-21 14:58 35.40655 -80.83200 13633 ft 319 kts 78°
2026-04-21 14:58 35.40488 -80.80423 14413 ft 338 kts 100°
2026-04-21 14:58 35.39467 -80.77695 14665 ft 370 kts 121°
2026-04-21 14:59 35.37668 -80.75285 14846 ft 399 kts 139°
2026-04-21 14:59 35.35236 -80.73452 14991 ft 423 kts 156°
2026-04-21 14:59 35.32338 -80.72523 15127 ft 441 kts 178°
2026-04-21 14:59 35.29261 -80.72856 15459 ft 448 kts 195°
2026-04-21 15:00 35.26241 -80.73836 16016 ft 450 kts 200°
2026-04-21 15:00 35.23228 -80.74958 16645 ft 453 kts 200°
2026-04-21 15:00 35.20183 -80.76024 17201 ft 458 kts 198°
2026-04-21 15:00 35.17074 -80.76986 17730 ft 463 kts 197°
2026-04-21 15:01 35.13917 -80.77854 18275 ft 468 kts 195°
2026-04-21 15:01 35.10708 -80.78667 18778 ft 472 kts 195°
2026-04-21 15:01 35.07469 -80.79453 19228 ft 476 kts 195°
2026-04-21 15:01 35.04215 -80.80232 19724 ft 477 kts 195°
2026-04-21 15:02 35.00955 -80.81015 20139 ft 478 kts 195°
2026-04-21 15:02 34.97686 -80.81806 20432 ft 481 kts 195°
2026-04-21 15:02 34.94385 -80.82611 20431 ft 484 kts 195°
2026-04-21 15:02 34.91087 -80.83416 20437 ft 482 kts 195°
2026-04-21 15:03 34.87797 -80.84219 20438 ft 482 kts 195°
2026-04-21 15:03 34.84512 -80.85020 20448 ft 482 kts 195°
2026-04-21 15:03 34.81202 -80.85720 20437 ft 486 kts 189°
2026-04-21 15:03 34.77814 -80.85885 20434 ft 490 kts 180°
2026-04-21 15:04 34.74418 -80.85442 20450 ft 491 kts 174°
2026-04-21 15:04 34.71026 -80.84910 20442 ft 491 kts 175°
2026-04-21 15:04 34.67677 -80.84452 20433 ft 490 kts 176°
2026-04-21 15:04 34.64240 -80.84079 20435 ft 490 kts 178°
2026-04-21 15:05 34.60839 -80.83778 20432 ft 489 kts 179°
2026-04-21 15:05 34.54044 -80.83218 20431 ft 489 kts 179°
2026-04-21 15:05 34.50687 -80.82931 20431 ft 490 kts 178°
2026-04-21 15:06 34.47241 -80.82627 20415 ft 490 kts 178°
2026-04-21 15:06 34.43890 -80.82324 20419 ft 490 kts 178°
2026-04-21 15:06 34.40489 -80.82014 20414 ft 490 kts 178°
2026-04-21 15:06 34.37095 -80.81705 20417 ft 489 kts 178°
2026-04-21 15:07 34.33700 -80.81396 20420 ft 489 kts 178°
2026-04-21 15:07 34.30302 -80.81087 20417 ft 489 kts 178°
2026-04-21 15:07 34.26911 -80.80780 20425 ft 489 kts 178°
2026-04-21 15:07 34.23515 -80.80473 20420 ft 489 kts 178°
2026-04-21 15:08 34.20114 -80.80174 20416 ft 489 kts 179°
2026-04-21 15:08 34.16725 -80.79929 20415 ft 489 kts 179°
2026-04-21 15:08 34.13324 -80.79716 20394 ft 489 kts 180°
2026-04-21 15:08 34.09927 -80.79515 20391 ft 489 kts 180°
2026-04-21 15:09 34.06524 -80.79312 20391 ft 488 kts 180°
2026-04-21 15:09 34.03135 -80.79106 20391 ft 488 kts 180°
2026-04-21 15:09 33.99740 -80.78895 20395 ft 488 kts 179°
2026-04-21 15:09 33.96355 -80.78680 20391 ft 488 kts 179°
2026-04-21 15:10 33.92974 -80.78463 20339 ft 479 kts 179°
2026-04-21 15:10 33.89739 -80.78250 20097 ft 452 kts 179°
2026-04-21 15:10 33.86689 -80.78048 19953 ft 426 kts 180°
2026-04-21 15:10 33.83843 -80.77861 19778 ft 405 kts 180°
2026-04-21 15:11 33.81057 -80.77683 19235 ft 397 kts 180°
2026-04-21 15:11 33.78357 -80.77511 19084 ft 379 kts 180°
2026-04-21 15:11 33.75767 -80.77347 18939 ft 369 kts 180°
2026-04-21 15:11 33.73213 -80.77187 18641 ft 366 kts 180°
2026-04-21 15:12 33.70672 -80.77029 18245 ft 366 kts 180°
2026-04-21 15:12 33.68142 -80.76870 17895 ft 361 kts 179°
2026-04-21 15:12 33.65656 -80.76712 17398 ft 356 kts 179°
2026-04-21 15:12 33.63185 -80.76555 16822 ft 355 kts 179°
2026-04-21 15:13 33.60735 -80.76400 16311 ft 351 kts 179°
2026-04-21 15:13 33.58304 -80.76246 15812 ft 347 kts 179°
2026-04-21 15:13 33.55909 -80.76094 15334 ft 344 kts 179°
2026-04-21 15:13 33.53527 -80.75943 14865 ft 340 kts 179°
2026-04-21 15:14 33.51179 -80.75794 14402 ft 337 kts 179°
2026-04-21 15:14 33.48848 -80.75646 13884 ft 333 kts 178°
2026-04-21 15:14 33.46539 -80.75501 13356 ft 331 kts 178°
2026-04-21 15:14 33.44246 -80.75355 12831 ft 328 kts 178°
2026-04-21 15:15 33.41982 -80.75212 12346 ft 325 kts 178°
2026-04-21 15:15 33.39732 -80.75069 11851 ft 322 kts 178°
2026-04-21 15:15 33.37502 -80.74928 11423 ft 317 kts 177°
2026-04-21 15:15 33.35360 -80.74791 11330 ft 300 kts 176°
2026-04-21 15:16 33.33371 -80.74240 10997 ft 292 kts 152°
2026-04-21 15:16 33.31602 -80.73088 10624 ft 289 kts 148°
2026-04-21 15:16 33.29851 -80.71914 10220 ft 287 kts 148°
2026-04-21 15:16 33.28116 -80.70755 10020 ft 285 kts 148°
2026-04-21 15:17 33.26373 -80.69593 10021 ft 287 kts 148°
2026-04-21 15:17 33.24627 -80.68429 10004 ft 286 kts 148°
2026-04-21 15:17 33.22893 -80.67270 9996 ft 285 kts 148°
2026-04-21 15:17 33.21147 -80.66098 10008 ft 290 kts 148°
2026-04-21 15:18 33.19381 -80.64911 9995 ft 292 kts 149°
2026-04-21 15:18 33.17782 -80.63497 9941 ft 284 kts 123°
2026-04-21 15:18 33.17106 -80.61413 9996 ft 264 kts 86°
2026-04-21 15:18 33.17438 -80.59346 10007 ft 257 kts 68°
2026-04-21 15:19 33.17867 -80.57252 10009 ft 263 kts 77°
2026-04-21 15:19 33.17972 -80.55041 10001 ft 270 kts 87°
2026-04-21 15:19 33.17775 -80.52801 9994 ft 273 kts 95°
2026-04-21 15:19 33.17358 -80.50573 9988 ft 276 kts 101°
2026-04-21 15:20 33.16785 -80.48380 10001 ft 277 kts 105°
2026-04-21 15:20 33.16117 -80.46216 9981 ft 277 kts 107°
2026-04-21 15:20 33.15411 -80.44082 9983 ft 276 kts 107°
2026-04-21 15:20 33.14695 -80.41960 9992 ft 275 kts 107°
2026-04-21 15:21 33.13938 -80.39880 9953 ft 272 kts 117°
2026-04-21 15:21 33.12643 -80.38270 9834 ft 267 kts 145°
2026-04-21 15:21 33.10973 -80.37386 9578 ft 263 kts 167°
2026-04-21 15:21 33.09162 -80.37293 9202 ft 261 kts 191°
2026-04-21 15:22 33.07434 -80.37873 8879 ft 257 kts 191°
2026-04-21 15:22 33.05683 -80.37665 8485 ft 255 kts 154°
2026-04-21 15:22 33.04120 -80.36719 8156 ft 251 kts 151°
2026-04-21 15:22 33.02538 -80.35837 7785 ft 251 kts 155°
2026-04-21 15:23 33.00916 -80.35068 7485 ft 250 kts 158°
2026-04-21 15:23 32.99284 -80.34393 7179 ft 247 kts 160°
2026-04-21 15:23 32.97651 -80.33785 6844 ft 246 kts 162°
2026-04-21 15:23 32.96019 -80.33222 6511 ft 243 kts 163°
2026-04-21 15:24 32.94392 -80.32695 6167 ft 242 kts 164°
2026-04-21 15:24 32.92768 -80.32189 5819 ft 240 kts 165°
2026-04-21 15:24 32.91156 -80.31700 5486 ft 239 kts 165°
2026-04-21 15:24 32.89549 -80.31221 5150 ft 237 kts 165°
2026-04-21 15:25 32.87955 -80.30752 5030 ft 236 kts 165°
2026-04-21 15:25 32.86344 -80.30281 4998 ft 240 kts 165°
2026-04-21 15:25 32.84735 -80.29813 4911 ft 234 kts 165°
2026-04-21 15:25 32.83168 -80.29360 4655 ft 228 kts 166°
2026-04-21 15:26 32.81664 -80.28926 4431 ft 222 kts 165°
2026-04-21 15:26 32.80662 -80.28605 4178 ft 222 kts 156°
2026-04-21 15:26 32.79402 -80.26896 3761 ft 204 kts 95°
2026-04-21 15:26 32.79397 -80.25313 3684 ft 182 kts 82°
2026-04-21 15:27 32.79508 -80.23884 3483 ft 168 kts 81°
2026-04-21 15:27 32.79624 -80.22514 3110 ft 164 kts 80°
2026-04-21 15:27 32.79736 -80.21186 2695 ft 161 kts 81°
2026-04-21 15:27 32.79843 -80.19877 2330 ft 156 kts 82°
2026-04-21 15:28 32.79911 -80.19038 2070 ft 153 kts 81°
2026-04-21 15:28 32.80011 -80.17783 1766 ft 151 kts 82°
2026-04-21 15:28 32.80106 -80.16548 1715 ft 148 kts 83°
2026-04-21 15:28 32.80198 -80.15346 1701 ft 144 kts 82°
2026-04-21 15:29 32.80288 -80.14165 1699 ft 144 kts 82°
2026-04-21 15:29 32.80380 -80.12965 1701 ft 147 kts 83°
2026-04-21 15:29 32.80471 -80.11758 1694 ft 146 kts 83°
2026-04-21 15:29 32.80563 -80.10564 1704 ft 145 kts 83°
2026-04-21 15:30 32.80803 -80.09402 1680 ft 145 kts 51°
2026-04-21 15:30 32.81532 -80.08529 1551 ft 153 kts 38°
2026-04-21 15:30 32.82408 -80.07889 1381 ft 146 kts 30°
2026-04-21 15:30 32.83323 -80.07354 1199 ft 147 kts 26°
2026-04-21 15:31 32.84257 -80.06839 983 ft 148 kts 26°
2026-04-21 15:31 32.85211 -80.06361 875 ft 147 kts 26°
2026-04-21 15:31 32.86134 -80.05833 677 ft 146 kts 26°
2026-04-21 15:31 32.87047 -80.05337 415 ft 142 kts 25°
2026-04-21 15:32 32.87930 -80.04859 180 ft 135 kts 26°
2026-04-21 15:32 32.88741 -80.04422 41 ft 121 kts 25°
2026-04-21 15:32 32.89297 -80.04120 40 ft 90 kts 24°
2026-04-21 15:32 32.89683 -80.03915 43 ft 40 kts 24°
2026-04-21 15:33 32.89871 -80.03815 44 ft 19 kts 24°
2026-04-21 15:33 32.89990 -80.03752 44 ft 19 kts 23°
2026-04-21 15:33 32.90120 -80.03683 48 ft 21 kts 24°
2026-04-21 15:33 32.90203 -80.03581 51 ft 11 kts 93°
2026-04-21 15:34 32.90168 -80.03524 50 ft 9 kts 159°
2026-04-21 15:34 32.90109 -80.03543 49 ft 11 kts 206°
2026-04-21 15:34 32.90012 -80.03568 46 ft 17 kts 181°
2026-04-21 15:34 32.89895 -80.03572 44 ft 9 kts 181°
2026-04-21 15:35 32.89868 -80.03573 43 ft 10 kts 181°
2026-04-21 15:35 32.89709 -80.03579 41 ft 33 kts 181°
2026-04-21 15:35 32.89475 -80.03583 43 ft 34 kts 182°
2026-04-21 15:35 32.89246 -80.03593 46 ft 32 kts 181°
2026-04-21 15:36 32.89026 -80.03600 46 ft 31 kts 182°
2026-04-21 15:36 32.88819 -80.03633 38 ft 23 kts 188°
2026-04-21 15:36 32.88711 -80.03650 37 ft 6 kts 187°
2026-04-21 15:36 32.88673 -80.03655 37 ft 6 kts 187°
2026-04-21 15:37 32.88628 -80.03662 37 ft 7 kts 187°
2026-04-21 15:37 32.88586 -80.03698 36 ft 9 kts 244°
2026-04-21 15:37 32.88577 -80.03736 35 ft 0 kts 256°